| time (UTC) | temp F | wind direction | speed MPH | gust MPH | rain 1hr in | rain 24hr in | rain mn in | humidity % | barometer mb |
| 20260503214551 | 55 | 0.0 | 0.0 | 0.18 | 0.25 | 0.25 | 94 | 1009.6 | |
| 20260503213054 | 55 | 0.0 | 0.0 | 0.07 | 0.13 | 0.13 | 93 | 1009.2 | |
| 20260503211556 | 55 | 0.0 | 0.0 | 0.07 | 0.11 | 0.11 | 92 | 1008.9 | |
| 20260503210050 | 55 | 0.0 | 0.0 | 0.03 | 0.07 | 0.07 | 91 | 1009.3 | |
| 20260503204614 | 55 | 0.0 | 0.0 | 0.03 | 0.06 | 0.06 | 91 | 1008.9 | |
| 20260503203100 | 55 | 0.0 | 0.0 | 0.03 | 0.06 | 0.06 | 90 | 1009.0 | |
| 20260503201552 | 56 | 0.0 | 0.0 | 0.01 | 0.03 | 0.03 | 87 | 1010.0 | |
| 20260503200056 | 56 | 0.0 | 0.0 | 0.00 | 0.03 | 0.03 | 85 | 1009.7 | |
| 20260503194555 | 56 | 0.0 | 0.0 | 0.00 | 0.02 | 0.02 | 85 | 1009.6 | |
| 20260503193059 | 56 | 0.0 | 0.0 | 0.00 | 0.02 | 0.02 | 85 | 1009.5 | |
| 20260503191610 | 56 | 0.0 | 0.0 | 0.00 | 0.02 | 0.02 | 85 | 1009.4 | |
| 20260503190051 | 56 | 0.0 | 0.0 | 0.00 | 0.02 | 0.02 | 84 | 1009.4 | |
| 20260503184553 | 56 | 0.0 | 0.0 | 0.00 | 0.02 | 0.02 | 83 | 1009.7 | |
| 20260503183055 | 57 | 0.0 | 0.0 | 0.00 | 0.02 | 0.02 | 83 | 1009.4 | |
| 20260503181554 | 57 | 0.0 | 0.0 | 0.00 | 0.02 | 0.02 | 83 | 1009.4 | |
| 20260503180059 | 57 | 0.0 | 0.0 | 0.00 | 0.02 | 0.02 | 82 | 1009.7 | |
| 20260503174556 | 58 | 0.0 | 0.0 | 0.00 | 0.02 | 0.02 | 81 | 1009.8 | |
| 20260503173104 | 58 | 0.0 | 0.0 | 0.00 | 0.02 | 0.02 | 80 | 1010.0 | |
| 20260503171556 | 60 | 0.0 | 0.0 | 0.00 | 0.02 | 0.02 | 78 | 1009.9 | |
| 20260503170106 | 60 | 0.0 | 0.0 | 0.00 | 0.02 | 0.02 | 78 | 1010.3 | |
| 20260503160106 | 63 | 0.0 | 0.0 | 0.00 | 0.02 | 0.02 | 72 | 1010.5 | |
| 20260503100104 | 63 | 0.0 | 0.0 | 0.00 | 0.00 | 0.00 | 71 | 1013.1 | |
| 20260503081553 | 57 | 0.0 | 0.0 | 0.00 | 0.00 | 0.00 | 81 | 1013.6 | |
| 20260503071612 | 54 | 0.0 | 0.0 | 0.00 | 0.00 | 0.00 | 86 | 1013.3 | |
| 20260503054613 | 55 | 0.0 | 0.0 | 0.00 | 0.00 | 0.00 | 86 | 1013.0 | |
| 20260503053102 | 55 | 0.0 | 0.0 | 0.00 | 0.00 | 0.00 | 86 | 1012.8 | |
| 20260503051555 | 55 | 0.0 | 0.0 | 0.00 | 0.00 | 0.00 | 87 | 1012.6 | |
| 20260503050058 | 54 | 0.0 | 0.0 | 0.00 | 0.00 | 0.00 | 87 | 1012.8 | |
| 20260503044557 | 53 | 0.0 | 0.0 | 0.00 | 0.00 | 0.00 | 87 | 1012.8 | |
| 20260503043058 | 53 | 0.0 | 0.0 | 0.00 | 0.00 | 0.00 | 86 | 1012.9 | |
| 20260503041559 | 52 | 0.0 | 0.0 | 0.00 | 0.00 | 0.00 | 85 | 1012.9 | |
| 20260503040057 | 52 | 0.0 | 0.0 | 0.00 | 0.00 | 0.00 | 84 | 1013.0 | |
| 20260503034558 | 52 | 0.0 | 0.0 | 0.00 | 0.00 | 0.00 | 82 | 1012.9 | |
| 20260503033058 | 52 | 0.0 | 0.0 | 0.00 | 0.00 | 0.00 | 81 | 1012.9 | |
| 20260503031550 | 52 | 0.0 | 0.0 | 0.00 | 0.00 | 0.00 | 79 | 1013.0 | |
| 20260503030053 | 51 | 0.0 | 0.0 | 0.00 | 0.00 | 0.00 | 79 | 1013.0 | |
| 20260503024548 | 51 | 0.0 | 0.0 | 0.00 | 0.00 | 0.00 | 77 | 1012.9 | |
| 20260503023055 | 51 | 0.0 | 0.0 | 0.00 | 0.00 | 0.00 | 75 | 1013.0 | |
| 20260503021548 | 52 | 0.0 | 0.0 | 0.00 | 0.00 | 0.00 | 73 | 1013.1 | |
| 20260503020053 | 52 | 0.0 | 0.0 | 0.00 | 0.00 | 0.00 | 72 | 1013.1 | |
| 20260503014600 | 53 | 0.0 | 0.0 | 0.00 | 0.00 | 0.00 | 71 | 1013.0 | |
| 20260503013053 | 54 | 0.0 | 0.0 | 0.00 | 0.00 | 0.00 | 70 | 1013.1 | |
| 20260503011553 | 55 | 0.0 | 0.0 | 0.00 | 0.00 | 0.00 | 68 | 1013.1 | |
| 20260503010054 | 55 | 0.0 | 0.0 | 0.00 | 0.00 | 0.00 | 66 | 1013.2 | |
| 20260503004550 | 56 | 0.0 | 0.0 | 0.00 | 0.00 | 0.00 | 65 | 1013.2 | |
| 20260503003055 | 57 | 0.0 | 0.0 | 0.00 | 0.00 | 0.00 | 63 | 1013.3 | |
| 20260503001611 | 57 | 0.0 | 0.0 | 0.00 | 0.00 | 0.00 | 62 | 1013.4 | |
| 20260503000112 | 58 | 0.0 | 0.0 | 0.00 | 0.00 | 0.00 | 62 | 1013.5 | |
| 20260502234558 | 58 | 0.0 | 0.0 | 0.00 | 0.00 | 0.00 | 62 | 1013.7 | |
| 20260502233056 | 59 | 0.0 | 0.0 | 0.00 | 0.00 | 0.00 | 61 | 1013.7 | |
| 20260502231559 | 60 | 0.0 | 0.0 | 0.00 | 0.00 | 0.00 | 60 | 1013.8 | |
| 20260502230048 | 62 | 0.0 | 0.0 | 0.00 | 0.00 | 0.00 | 57 | 1013.8 | |
| 20260502224555 | 62 | 0.0 | 0.0 | 0.00 | 0.00 | 0.00 | 55 | 1013.8 | |
| 20260502223053 | 62 | 0.0 | 0.0 | 0.00 | 0.00 | 0.00 | 55 | 1014.0 | |
| 20260502221556 | 62 | 0.0 | 0.0 | 0.00 | 0.00 | 0.00 | 55 | 1013.9 | |
| 20260502220057 | 63 | 0.0 | 0.0 | 0.00 | 0.00 | 0.00 | 54 | 1013.9 |